Biggs, California, United States (95917)
Lat: 39.41N, Lon: 121.71W
Wx Zone: CAZ016
Local Info
Past Weather Observations for Thursday, July 24, 2014

NOTE: This archive is for the closest National Weather Service station to Biggs. Information may differ from the station used for current weather conditions.

Click here for Long-term Archive

Time Weather Temperature Dewpoint Humidity Pressure Winds Precip Visibility
23:53
Clear
79°F / 26°C 46°F / 8°C 32% 29.83 in
(1010 mb)
E 8.1 mph
(E 13 kph)
- 10SM
22:53
Clear
79°F / 26°C 46°F / 8°C 32% 29.83 in
(1010 mb)
ENE 6.9 mph
(ENE 11 kph)
- 10SM
21:53
Clear
79°F / 26°C 45°F / 7°C 30% 29.83 in
(1010 mb)
Calm - 10SM
20:53
Clear
77°F / 25°C 46°F / 8°C 34% 29.83 in
(1010 mb)
ENE 3.5 mph
(ENE 6 kph)
- 10SM
19:53
Clear
88°F / 31°C 48°F / 9°C 25% 29.8 in
(1009 mb)
Calm - 10SM
18:53
Clear
91°F / 33°C 45°F / 7°C 20% 29.8 in
(1009 mb)
Calm - 10SM
17:53
Clear
93°F / 34°C 46°F / 8°C 20% 29.8 in
(1009 mb)
W 4.6 mph
(W 7 kph)
- 10SM
16:53
Clear
93°F / 34°C 46°F / 8°C 20% 29.8 in
(1009 mb)
W 9.2 mph
(W 15 kph)
- 10SM
15:53
Clear
93°F / 34°C 46°F / 8°C 20% 29.83 in
(1010 mb)
SSW 9.2 mph
(SSW 15 kph)
- 10SM
14:53
Clear
93°F / 34°C 43°F / 6°C 17% 29.86 in
(1011 mb)
W 9.2 mph
(W 15 kph)
- 10SM
13:53
Clear
91°F / 33°C 52°F / 11°C 26% 29.89 in
(1012 mb)
W 11.5 mph
(W 19 kph)
- 10SM
12:53
Clear
91°F / 33°C 52°F / 11°C 26% 29.92 in
(1013 mb)
NW 9.2 mph
(NW 15 kph)
- 10SM
11:53
Clear
88°F / 31°C 54°F / 12°C 31% 29.95 in
(1014 mb)
NW 13.8 mph
(NW 22 kph)
- 10SM
10:53
Clear
84°F / 29°C 52°F / 11°C 33% 29.98 in
(1015 mb)
NW 10.4 mph
(NW 17 kph)
- 10SM
09:53
Clear
82°F / 28°C 52°F / 11°C 35% 30.01 in
(1016 mb)
WNW 8.1 mph
(WNW 13 kph)
- 10SM
08:53
Clear
77°F / 25°C 50°F / 10°C 39% 30.01 in
(1016 mb)
Variable 3.5 mph
(Variable 6 kph)
- 10SM
07:53
Clear
77°F / 25°C 45°F / 7°C 32% 30.01 in
(1016 mb)
Calm - 10SM
06:53
Clear
72°F / 22°C 48°F / 9°C 44% 30.01 in
(1016 mb)
W 3.5 mph
(W 6 kph)
- 10SM
05:53
Clear
70°F / 21°C 45°F / 7°C 40% 30.01 in
(1016 mb)
Calm - 10SM
04:53
Clear
64°F / 18°C 46°F / 8°C 52% 30.01 in
(1016 mb)
Calm - 10SM
03:53
Clear
64°F / 18°C 50°F / 10°C 60% 30.01 in
(1016 mb)
Calm - 10SM
02:53
Clear
66°F / 19°C 48°F / 9°C 52% 30.01 in
(1016 mb)
Calm - 10SM
01:53
Clear
70°F / 21°C 48°F / 9°C 46% 30.01 in
(1016 mb)
Calm - 10SM
00:53
Clear
73°F / 23°C 43°F / 6°C 33% 30.01 in
(1016 mb)
E 3.5 mph
(E 6 kph)
- 10SM
Time Weather Temperature Dewpoint Humidity Pressure Winds Precip Visibility


Weather for websites

WeatherForYou.com, LLC is not responsible for any damages or problems caused by this service. Current weather conditions are obtained from the closest station including government and personal stations which may have varying degrees of accuracy. Weather forecasts are derived from the NOAA NDFD. Like all things, this site belongs to Jesus Christ... He just trusts me to maintain it. If you have any questions or comments email webmaster@weatherforyou.com

Copyright © 2014, WeatherForYou.com LLC. All rights reserved.